Regional Weather Roundup
Issued by NWS

Home | Current Version | Previous Version | Graphics & Text | Print | Product List | Glossary On
Versions: 1 2 3 4 5 6 7 8 9 10 11 12 13 14 15 16 17 18 19 20 21 22 23 24 25 26 27 28 29 30 31 32 33 34 35 36 37 38 39 40 41 42 43 44 45 46 47 48 49 50
000
ASUS43 KDTX 251010
RWRMI
MICHIGAN HOURLY REGIONAL WEATHER ROUNDUP
NATIONAL WEATHER SERVICE DETROIT/PONTIAC MI
600 AM EDT THU AUG 25 2016

NOTE: "FAIR" INDICATES FEW OR NO CLOUDS BELOW 12,000 FEET WITH NO
SIGNIFICANT WEATHER AND/OR OBSTRUCTION TO VISIBILITY.

MIZ047>049-052>055-059>063-066>070-074>076-081>083-251100-
SOUTHEAST LOWER MICHIGAN

CITY           SKY/WX    TMP DP  RH WIND       PRES   REMARKS
ADRIAN         PTCLDY    69  69 100 CALM      30.01S
ALMA           PTCLDY    73  72  99 SW12      29.96S FOG
ANN ARBOR      PTCLDY    70  70 100 S3        29.99R FOG
BAD AXE        CLOUDY    69  69  99 CALM      29.95S FOG
CARO           MOCLDY    70  69  98 SW3       29.95S FOG
DETROIT CITY   PTCLDY    73  73 100 W5        29.99R
DETROIT        CLOUDY    72  71  97 SW7       30.00R FOG
FLINT          PTCLDY    74  70  87 SW3       29.97R
GROSSE ILE     CLOUDY    72  70  94 W3        29.98S
HILLSDALE      CLOUDY    71  69  93 CALM      30.01S
HOWELL         PTCLDY    71  71  99 CALM      29.99R FOG

CITY           SKY/WX    TMP DP  RH WIND       PRES   REMARKS
JACKSON        CLOUDY    71  71 100 SW7       30.00R
LAMBERTVILLE   CLOUDY    72  70  92 CALM      30.00S
LANSING        MOCLDY    72  70  93 SW8       29.98S
LAPEER         CLOUDY    72  71  96 SW5       29.98R FOG
MASON          CLOUDY    71  69  95 CALM      29.99R
MONROE         PTCLDY    69  69 100 W5        29.99S
MT. CLEMENS    PTCLDY    73  73 100 SW7       29.96R
PONTIAC        PTCLDY    72  70  93 SW5       29.98R
PORT HURON     PTCLDY    72  72 100 CALM      29.97R FOG
TRI CITIES     CLOUDY    71  71 100 SW6       29.95F FOG
MIDLAND        FAIR      70  69  98 CALM      29.94F FOG
TROY           MOCLDY    73  71  92 SW3       30.00R FOG
SAGINAW HB     PTCLDY    70  68  94 SW3       29.95S FOG
$$
MIZ043>046-050>051-056>058-064>065-071>073-077>080-251100-
SOUTHWEST LOWER MICHIGAN

CITY           SKY/WX    TMP DP  RH WIND       PRES   REMARKS
BATTLE CREEK   CLOUDY    70  70 100 SW7       29.98F
BENTON HARBOR  RAIN      74  71  91 S9        29.97S FOG
BIG RAPIDS     MOCLDY    70  69  96 CALM      29.96R
COLDWATER      CLOUDY    71  71  99 SW3       29.99F
FREMONT        RAIN      70  69  97 S3        29.96R VSB 1/2
HOLLAND        RAIN      75  73  93 SW14G20   29.95F FOG
GRAND RAPIDS   LGT RAIN  73  71  93 S5        29.97S
IONIA          CLOUDY    72  70  95 SW5       29.97R FOG
KALAMAZOO      MOCLDY    73  69  87 SW6       29.97F
LUDINGTON      FOG       66  66 100 CALM      29.94R VSB 1/4
MARSHALL       CLOUDY    72  72 100 W5        29.99S
MOUNT PLEASANT PTCLDY    70  69  98 CALM      29.95S FOG
MUSKEGON       TSTM      72  70  93 NE3       29.94F
SOUTH HAVEN    DRIZZLE   75  74  95 SW8       29.97S
$$
MIZ016>042-251100-
NORTHERN LOWER MICHIGAN

CITY           SKY/WX    TMP DP  RH WIND       PRES   REMARKS
ALPENA         CLEAR     67  65  93 S3        29.91R
BEAVER ISLAND  PTCLDY    67  67  98 SW5       29.90R
BELLAIRE       MOCLDY    69  67  95 CALM      29.92R
CADILLAC       PTCLDY    65  64  96 CALM      29.96S FOG
CHARLEVOIX     MOCLDY    70  68  95 SW5       29.93R
FRANKFORT      CLOUDY    65  64  94 CALM      29.92S
GAYLORD        MOCLDY    69  66  90 W8        29.94R
GRAYLING       CLOUDY    69  68  96 CALM      29.95R
HARBOR SPRINGS CLOUDY    70  68  93 W5        29.90R
HOUGHTON LAKE  CLOUDY    69  67  93 SW3       29.95S
MANISTEE       FOG       64  64 100 CALM      29.94R VSB 3/4
OSCODA         CLEAR     67  67  99 SW6       29.91S
PELLSTON       PTCLDY    68  66  93 W3        29.90R
ROGERS CITY    CLEAR     69  67  93 SW7       29.90R
TRAVERSE CITY  CLOUDY    70  67  90 CALM      29.90S
$$
MIZ007>008-015-251100-
EASTERN UPPER MICHIGAN

CITY           SKY/WX    TMP DP  RH WIND       PRES   REMARKS
KINROSS        FOG       65  65 100 SW3       29.88R VSB 1/4
MACKINAC ISLAN CLOUDY    69  69 100 SW8       29.88R
NEWBERRY       CLOUDY    64  63  97 SW6       29.87R
S. S. MARIE    FOG       66  66 100 CALM      29.86R VSB 1/2
$$
MIZ004>006-011>014-085-251100-
CENTRAL UPPER MICHIGAN

CITY           SKY/WX    TMP DP  RH WIND       PRES   REMARKS
MANISTIQUE     CLEAR     65  63  93 W8        29.88R
ESCANABA       CLOUDY    64  61  90 W7        29.90R
MENOMINEE      CLOUDY   N/A N/A N/A CALM      29.93R
SAWYER-GWINN   PTCLDY    60  57  90 W6        29.92R
$$
MIZ001>003-009>011-084-251100-
WESTERN UPPER MICHIGAN

CITY           SKY/WX    TMP DP  RH WIND       PRES   REMARKS
IRON MOUNTAIN  PTCLDY    62  56  80 W6        29.94R
HOUGHTON       CLEAR     63  59  87 W8        29.89R
COPPER HARBOR    N/A     67  57  70 NW8       29.84R
IRONWOOD       CLEAR     58  54  86 SW3       29.96S
$$

ABBREVIATIONS USED IN REMARKS
   TC - TEMPERATURE IN CELSIUS
  WCI - WIND CHILL INDEX
   HX - HEAT INDEX
  VSB - VISIBILITY





USA.gov is the U.S. government's official web portal to all federal, state and local government web resources and services.